Location: Crescent
(42.8242°N, 73.7329°W)
Time: 23:17:37
(UTC+00:00)

Transit 4A - All Passes

Search period start: 16 February 2026 00:00
Search period end: 26 February 2026 00:00
Orbit: 865 x 976 km, 66.8° (Epoch: 16 February)

Date Brightness Start Highest point End Pass type
(mag) Time Alt. Az. Time Alt. Az. Time Alt. Az.
16 Feb - 08:48:58 10° SSW 08:54:46 73° ESE 09:00:45 10° NE visible
16 Feb - 10:37:03 10° W 10:41:42 24° NW 10:46:29 10° N visible
16 Feb - 16:04:55 10° N 16:09:33 21° NE 16:14:15 10° E daylight
16 Feb - 17:50:26 10° NNW 17:56:43 90° NE 18:03:06 10° SSE daylight
16 Feb - 19:38:45 10° WNW 19:42:13 15° WSW 19:45:43 10° SW daylight
17 Feb - 07:14:31 10° SE 07:18:00 16° ESE 07:21:31 10° ENE visible
17 Feb - 08:57:39 10° SW 09:03:30 79° WNW 09:09:32 10° NNE visible
17 Feb - 10:46:53 10° W 10:50:51 18° NW 10:54:53 10° N visible
17 Feb - 16:13:22 10° NNW 16:18:39 28° NE 16:23:59 10° ESE daylight
17 Feb - 17:59:14 10° NW 18:05:27 65° WSW 18:11:44 10° SSE daylight
18 Feb - 07:21:49 10° SSE 07:26:27 25° ESE 07:31:09 10° NE visible
18 Feb - 09:06:35 10° SW 09:12:19 55° NW 09:18:15 10° NNE visible
18 Feb - 10:57:03 10° WNW 11:00:05 14° NNW 11:03:10 10° N visible
18 Feb - 14:37:59 10° NNE 14:39:24 11° NNE 14:40:50 10° NE daylight
18 Feb - 16:21:55 10° NNW 16:27:40 37° NE 16:33:30 10° ESE daylight
18 Feb - 18:08:11 10° NW 18:14:06 45° WSW 18:20:06 10° S daylight
19 Feb - 07:29:41 10° S 07:34:58 37° ESE 07:40:23 10° NE visible
19 Feb - 09:15:44 10° WSW 09:21:13 40° NW 09:26:52 10° NNE visible
19 Feb - 11:07:47 10° NW 11:09:23 11° NNW 11:11:01 10° N visible
19 Feb - 14:45:43 10° N 14:48:44 14° NNE 14:51:46 10° ENE daylight
19 Feb - 16:30:31 10° NNW 16:36:36 51° NE 16:42:46 10° SE daylight
19 Feb - 18:17:17 10° NW 18:22:41 31° WSW 18:28:08 10° SSW daylight
20 Feb - 07:37:54 10° S 07:43:34 55° ESE 07:49:24 10° NE visible
20 Feb - 09:25:08 10° WSW 09:30:12 29° NW 09:35:26 10° NNE visible
20 Feb - 14:53:56 10° N 14:57:59 17° NE 15:02:04 10° ENE daylight
20 Feb - 16:39:11 10° NNW 16:45:27 71° ENE 16:51:48 10° SE daylight
20 Feb - 18:26:39 10° WNW 18:31:12 21° WSW 18:35:46 10° SSW daylight
21 Feb - 06:05:12 10° ESE 06:07:00 11° E 06:08:48 10° E visible
21 Feb - 07:46:24 10° SSW 07:52:15 80° ESE 07:58:16 10° NNE visible
21 Feb - 09:34:46 10° W 09:39:17 22° NW 09:43:55 10° N visible
21 Feb - 15:02:20 10° N 15:07:09 23° NE 15:12:02 10° E daylight
21 Feb - 16:47:56 10° NNW 16:54:14 84° WSW 17:00:36 10° SSE daylight
21 Feb - 18:36:38 10° WNW 18:39:39 14° WSW 18:42:40 10° SW daylight
22 Feb - 06:11:34 10° SE 06:15:24 18° ESE 06:19:18 10° ENE visible
22 Feb - 07:55:09 10° SW 08:01:00 72° WNW 08:07:03 10° NNE visible
22 Feb - 09:44:40 10° WNW 09:48:27 17° NW 09:52:18 10° N visible
22 Feb - 15:10:48 10° NNW 15:16:14 30° NE 15:21:43 10° ESE daylight
22 Feb - 16:56:47 10° NW 17:02:56 59° WSW 17:09:10 10° SSE daylight
23 Feb - 06:19:03 10° SSE 06:23:52 27° ESE 06:28:48 10° NE visible
23 Feb - 08:04:08 10° SW 08:09:50 51° NW 08:15:44 10° NNE visible
23 Feb - 09:54:55 10° WNW 09:57:42 13° NNW 10:00:31 10° N visible
23 Feb - 13:35:05 10° N 13:37:03 11° NNE 13:39:01 10° NE daylight
23 Feb - 15:19:21 10° NNW 15:25:13 40° NE 15:31:09 10° ESE daylight
23 Feb - 17:05:45 10° NW 17:11:34 41° WSW 17:17:27 10° S daylight
24 Feb - 06:27:00 10° S 06:32:25 41° ESE 06:37:58 10° NE visible
24 Feb - 08:13:21 10° WSW 08:18:45 37° NW 08:24:20 10° NNE visible
24 Feb - 10:05:57 10° NW 10:07:02 10° NNW 10:08:08 10° NNW visible
24 Feb - 13:43:02 10° N 13:46:22 15° NNE 13:49:43 10° ENE daylight
24 Feb - 15:27:59 10° NNW 15:34:08 55° NE 15:40:22 10° SE daylight
24 Feb - 17:14:54 10° NW 17:20:08 28° WSW 17:25:25 10° SSW daylight
25 Feb - 06:35:18 10° SSW 06:41:02 60° ESE 06:46:57 10° NE visible
25 Feb - 08:22:48 10° WSW 08:27:46 27° NW 08:32:53 10° NNE visible
25 Feb - 13:51:19 10° N 13:55:36 19° NE 13:59:54 10° E daylight
25 Feb - 15:36:40 10° NNW 15:42:58 76° ENE 15:49:21 10° SE daylight
25 Feb - 17:24:22 10° WNW 17:28:38 19° WSW 17:32:55 10° SSW daylight
